SCP
0 0 0 0 0 0 0 0 0 0 0 0 0 0 0 0 0 0 0 0 0 0 0 0 0 0 0 0 0 0 0 0 0 0 0 0 0 0 0 0 0 0 0 0 0
0 0 0 0 0 0 0 0 0 0 0 0 0 0 0 0 0 0 0 0 0 0 0 0 0 0 0 0 0 0 0 0 0 0 0 0 0 0 0 0 0 0 0 0 0
0 0 0 0 0 0 0 0 0 0 0 0 0 0 0 0 0 -0 0 0 0 0 0 0 0 0 0 0 0 0 0 0 0 0 0 0 0 0 0 0 0 0 0 0 0
0 0 0 0 0 0 0 0 0 0 0 0 0 0 0 0 0 0 0 0 0 0 0 0 0 0 0 0 0 0 0 0 0 0 -0 -0 0 0 0 0 0 0 0 0 0
0 0 0 0 0 0 0 0 0 0 0 0 0 0 0 0 0 0 0 0 0 0 0 0 0 0 0 0 0 0 0 0 0 0 0 0 0 0 0 0 0 0 0 0 0
0 0 0 0 0 0 0 0 0 0 0 0 0 0 0 0 0 0 0 0 0 0 0 0 0 0 0 0 0 0 0 0 0 0 0 0 0 0 0 0 0 0 0 0 0
0 0 0 0 0 0 0 0 0 0 0 -0 0 0 0 0 0 0 0 0 0 0 0 0 0 0 0 0 0 0 0 0 0 0 0 0 0 0 0 0 0 0 0 0 0
0 0 0 0 0 0 0 0 0 -0 -0 -0 -0 0 0 0 0 0 0 0 0 0 0 0 0 0 0 0 0 0 0 0 0 0 0 0 0 0 0 0 0 0 0 0 0
0 0 0 0 0 0 0 0 0 -0 -0 -0 -0 0 0 0 0 0 0 0 0 0 0 0 0 0 0 0 0 0 0 0 0 0 0 0 0 0 0 0 0 0 0 0 0
0 0 0 0 0 0 0 0 0 -0 0 0 0 0 0 0 0 0 0 0 0 0 0 0 0 0 0 0 0 0 0 0 0 0 0 0 0 0 0 0 0 0 0 0 0
0 0 0 0 0 0 0 0 -0 -0 0 0 0 0 0 0 0 0 0 0 0 0 0 0 0 0 0 0 0 0 0 0 0 0 0 0 0 0 0 0 0 0 0 0 0
0 0 0 0 0 0 0 0 0 0 -0 0 0 0 0 0 0 0 0 0 0 0 0 0 0 0 0 0 0 0 0 0 0 0 0 0 0 0 0 0 0 0 0 0 0
0 0 0 0 0 0 0 0 0 0 0 0 0 0 0 0 0 0 0 0 0 0 0 0 0 0 0 0 0 0 0 0 0 0 0 0 0 0 0 0 0 0 0 0 0
0 0 0 0 0 0 0 0 0 0 0 0 0 -0 0 -0 0 0 0 0 0 0 0 0 0 0 0 0 0 0 0 0 0 0 0 0 0 0 0 0 0 0 0 0 0
0 0 0 0 0 0 0 0 0 0 0 0 0 0 -0 -0 -0 -0 0 0 0 0 0 0 0 0 0 0 0 0 0 0 0 0 0 0 0 -0 -0 0 0 0 0 0 0
0 0 0 0 0 0 0 0 0 0 0 0 0 0 0 -0 0 -0 0 0 0 0 0 0 -0 0 0 0 0 0 0 0 0 0 0 0 0 -0 0 0 0 0 0 0 0
0 0 0 0 0 0 0 0 0 0 0 0 0 0 0 0 0 0 0 0 0 0 0 -0 0 0 -0 0 0 0 0 0 0 0 0 0 0 0 0 -0 0 0 0 0 0
0 0 0 0 0 0 0 0 0 0 0 0 0 0 0 0 0 0 -0 0 0 0 0 0 0 0 0 0 0 0 0 0 0 0 0 0 0 0 0 0 0 0 0 0 0
0 0 0 0 0 0 0 0 0 0 0 0 0 -0 -0 0 -0 -0 -0 0 0 0 0 0 0 0 0 0 0 0 0 0 0 0 0 0 0 0 0 0 0 0 0 0 0
0 0 0 0 0 0 0 0 0 0 -0 -0 0 0 0 0 0 -0 -0 -0 0 0 0 0 0 0 0 0 0 0 0 0 0 0 0 0 0 0 0 0 0 0 0 0 0
0 0 0 0 0 0 0 0 0 0 -0 0 0 0 0 0 0 -0 -0 -0 -0 0 0 0 0 0 0 0 0 0 0 0 0 0 0 0 0 0 0 0 0 0 0 0 0
0 0 0 0 0 0 0 0 -0 -0 -0 0 0 0 -0 0 0 0 0 -0 -0 -0 0 -0 0 0 0 0 0 0 0 0 0 0 0 0 0 0 0 0 0 0 0 0 0
0 0 0 0 0 0 0 -0 -0 -0 0 0 0 -0 -0 -0 -0 -0 -0 -0 -0 -0 -0 0 0 0 0 0 0 0 0 0 0 0 0 0 0 0 0 0 0 0 0 0 0
0 0 0 0 0 0 0 -0 0 0 -0 0 0 -0 -0 -0 -0 0 -0 -0 -0 0 0 0 0 0 0 0 0 0 0 0 0 0 0 0 0 0 0 0 0 0 0 0 0
0 0 0 0 0 0 0 0 -0 -0 0 -0 -0 -0 -0 -0 -0 -0 -0 -0 -0 0 -0 -0 0 0 0 0 0 0 0 0 0 0 0 0 0 0 0 0 0 0 0 0 0
0 0 0 0 0 0 0 0 -0 -0 -0 0 -0 -0 0 0 -0 -0 -0 -0 -0 0 0 -0 0 0 0 0 0 0 0 0 0 0 0 0 -0 0 0 0 0 0 0 0 0
0 0 0 0 0 0 0 -0 -0 -0 -0 0 -0 -0 -0 -0 0 0 0 0 0 0 0 0 0 0 0 -0 0 0 0 0 0 0 0 0 0 0 -0 0 0 0 0 0 0
Wind_Speed_500mb
47 42 39 45 47 47 47 47 49 49 47 44 40 39 40 40 50 48 53 50 47 38 32 39 32 28 28 24 33 18 2 13 18 18 24 18 4 11 13 17 14 12 15 20 52
47 47 46 45 46 48 50 51 49 51 50 48 45 39 37 32 48 64 54 42 44 38 42 35 36 30 19 21 19 13 11 21 14 17 14 16 19 28 13 14 9 14 14 31 54
47 48 49 50 50 51 52 55 55 53 50 48 44 39 34 30 42 25 14 3 23 39 45 41 36 34 38 22 25 16 23 27 25 35 20 15 17 22 16 7 28 35 43 48 53
49 49 50 50 51 54 56 57 58 59 55 47 47 41 35 23 17 16 19 7 24 15 34 44 44 43 16 23 42 15 33 44 42 49 44 12 15 10 22 27 14 43 55 54 56
53 54 55 55 56 57 59 60 63 63 60 55 45 41 44 29 60 51 40 60 51 24 26 43 40 38 24 11 36 19 16 47 58 44 47 35 21 18 15 32 40 30 46 61 58
56 57 58 60 61 64 66 68 68 67 64 56 47 41 43 42 66 56 50 43 43 33 33 38 34 47 29 23 31 15 40 40 50 51 40 17 29 21 5 50 40 44 42 54 69
55 58 58 59 60 62 64 69 70 69 63 55 46 42 50 97 55 40 34 51 39 35 40 42 50 41 5 28 55 38 30 29 27 14 16 16 25 18 64 65 59 52 48 57 62
56 62 61 62 65 67 71 73 74 66 57 38 40 39 47 69 63 65 71 51 44 38 36 36 41 47 35 28 24 10 12 33 22 18 14 20 41 19 64 63 64 71 61 63 63
62 62 64 66 70 73 75 76 69 63 35 25 34 36 38 26 27 44 61 77 64 60 52 46 36 41 16 13 10 13 11 11 15 14 11 35 38 37 62 46 53 66 82 64 70
61 60 64 68 72 77 75 64 62 55 32 16 22 16 42 31 19 30 41 60 68 50 50 41 26 15 11 22 43 32 9 22 20 11 31 43 46 7 28 23 40 60 65 76 64
61 61 65 68 72 74 71 63 57 21 39 35 50 74 106 97 85 59 39 31 68 51 31 44 21 31 50 47 35 30 30 36 21 26 29 37 48 35 39 32 17 27 48 66 78
62 63 68 71 70 72 36 48 43 44 51 49 58 81 109 89 57 103 73 31 34 53 38 20 37 49 42 33 34 30 35 42 26 18 11 25 37 16 33 34 44 47 49 50 60
65 69 69 75 73 45 33 62 39 59 29 53 58 55 48 28 79 99 55 43 23 49 41 52 34 48 39 35 39 41 42 43 30 2 7 8 34 22 14 21 36 56 69 71 72
66 67 73 73 57 54 82 37 60 48 12 17 13 13 16 31 16 49 63 62 16 12 31 38 53 36 41 43 42 42 41 38 34 8 26 22 30 35 16 29 34 57 51 71 78
67 70 71 63 76 72 63 58 34 27 12 16 13 10 38 7 32 18 53 58 48 43 11 5 28 45 36 47 44 36 34 24 24 25 20 19 12 32 18 43 53 39 63 78 92
67 72 78 80 82 62 42 34 34 6 15 12 24 37 37 56 37 36 17 39 35 39 31 48 16 12 52 33 30 20 7 4 6 22 33 41 29 51 25 47 33 39 63 82 86
73 76 75 75 62 37 39 24 4 9 14 15 12 34 39 51 43 26 19 6 15 27 37 56 57 12 8 12 4 13 16 15 17 19 24 31 26 45 14 39 42 35 47 75 83
73 78 76 59 29 21 24 4 7 13 16 18 26 38 19 40 9 14 12 13 16 20 7 29 19 43 35 25 5 38 43 19 21 10 20 10 18 24 38 41 72 71 41 34 63
74 79 79 33 23 22 9 5 13 13 14 27 38 31 23 9 5 6 7 13 4 10 12 15 20 2 19 24 40 13 22 19 9 3 9 7 11 17 25 18 19 12 36 52 56
70 71 39 28 27 27 4 24 16 34 41 37 25 12 8 10 11 12 7 4 8 11 19 5 11 14 3 9 11 25 14 9 12 27 39 13 8 12 22 20 17 16 15 36 54
58 29 22 25 48 15 6 13 16 30 39 12 8 12 12 15 9 7 12 11 6 13 10 3 8 6 20 17 26 11 15 10 6 16 26 15 8 15 28 5 16 12 15 38 54
30 8 35 41 8 7 5 8 49 46 61 32 19 16 18 7 8 10 11 8 14 5 19 7 5 7 5 1 2 4 27 14 13 13 9 6 20 12 12 9 11 11 24 37 52
19 18 19 15 3 9 12 25 28 26 23 10 6 11 5 5 6 7 7 12 17 5 6 9 5 4 7 6 5 7 13 15 8 2 25 10 11 5 7 6 10 10 31 43 55
17 6 9 10 10 8 18 28 21 31 30 13 10 7 4 5 7 12 13 11 28 25 38 13 7 4 6 4 8 4 7 20 19 21 28 33 41 9 11 7 9 17 36 51 54
20 5 8 7 11 14 19 17 35 26 14 27 4 8 10 5 9 8 7 14 16 15 6 4 8 4 8 7 5 7 8 12 22 29 13 4 9 8 10 9 8 17 39 44 55
17 6 7 26 29 9 21 11 28 30 16 15 10 18 18 7 13 21 12 13 9 9 10 6 7 4 6 2 3 6 8 12 13 17 17 25 39 3 7 6 11 25 35 32 45
17 16 12 24 7 5 8 14 34 38 19 35 32 22 10 13 14 28 28 34 18 18 11 9 5 2 8 6 3 9 8 5 5 9 8 7 6 6 7 8 12 30 42 44 48
Wind_Direction_500mb
4 0 3 1 358 354 351 350 345 340 336 326 317 302 300 304 305 297 286 290 280 277 260 258 253 227 209 216 212 207 128 240 239 225 245 281 190 178 173 152 175 188 188 193 182
4 2 359 355 353 350 346 342 339 337 334 330 325 313 306 297 296 290 292 288 275 248 249 242 239 211 205 223 199 170 175 220 213 225 264 288 216 183 167 170 189 158 171 166 177
3 1 357 355 352 347 341 336 333 331 328 326 325 320 305 299 303 285 193 9 286 250 236 246 244 221 220 212 202 203 220 230 262 262 284 312 287 195 154 200 209 190 181 177 182
358 355 352 348 345 342 339 335 331 328 328 324 322 317 298 281 263 195 211 243 324 330 233 241 236 236 208 216 218 241 221 229 256 262 284 280 284 271 198 214 188 230 229 206 197
348 348 348 346 343 339 335 332 328 325 323 324 314 316 310 268 244 255 261 284 286 279 258 233 230 237 233 220 233 246 243 244 250 259 268 291 249 239 271 245 240 244 220 218 211
344 347 346 342 339 336 333 329 326 324 322 315 314 302 298 262 276 274 273 262 266 265 257 212 214 228 270 243 246 254 240 256 250 249 244 257 266 236 231 245 257 240 234 220 215
344 343 343 341 338 334 329 326 321 322 317 310 296 296 275 255 265 254 242 239 253 244 239 228 228 236 247 246 256 264 260 270 244 231 214 248 255 211 246 249 251 252 234 225 215
340 336 341 339 336 332 330 326 323 319 317 303 291 281 260 275 281 254 243 229 228 231 233 242 238 258 255 255 302 279 263 242 244 218 234 198 247 234 245 239 234 236 237 219 215
335 340 340 338 334 332 330 326 330 324 316 290 276 243 263 289 284 284 257 241 234 240 249 256 243 241 227 207 275 221 249 228 241 225 238 202 253 235 244 241 227 229 234 221 221
335 338 334 333 332 331 333 330 335 337 311 320 271 240 260 271 320 320 266 249 237 242 221 209 215 206 204 200 221 222 216 232 229 215 214 235 242 242 211 216 230 228 229 228 219
332 331 331 331 331 331 331 332 344 333 315 286 264 279 276 271 283 281 286 283 238 235 199 192 197 203 217 219 228 226 214 237 238 228 246 241 249 224 237 263 231 242 234 226 224
334 333 331 330 329 327 317 329 335 313 305 290 270 260 271 275 270 263 259 259 223 226 210 181 212 216 217 219 227 225 231 243 258 242 272 282 271 238 223 241 244 244 238 225 217
330 330 329 326 326 329 300 317 317 315 290 299 277 264 272 255 244 254 239 241 253 237 203 207 206 219 217 213 219 225 225 234 236 189 202 25 284 265 253 245 237 243 246 241 229
329 329 325 328 327 313 307 325 310 315 278 282 260 283 38 308 272 291 248 221 216 259 242 209 216 199 210 215 210 226 223 231 233 201 247 167 265 258 229 238 240 243 237 237 236
330 329 329 329 312 308 308 310 316 329 287 268 280 308 318 51 314 322 330 214 230 228 232 250 215 215 210 209 202 227 236 226 217 209 242 221 245 257 185 241 240 234 235 233 235
328 326 327 327 322 322 325 307 306 237 249 280 302 308 330 324 312 294 291 243 228 242 248 258 244 255 222 217 201 217 117 115 208 223 241 234 215 267 220 233 244 231 225 231 225
328 326 327 325 312 328 315 314 252 217 324 278 303 323 316 303 307 300 264 216 250 205 227 243 242 215 199 219 163 179 196 224 216 211 239 223 201 239 209 239 236 234 227 227 224
329 329 328 334 333 320 306 316 257 250 237 291 313 318 286 304 320 323 359 300 234 245 269 223 263 195 192 214 169 200 202 217 230 189 239 168 213 238 240 252 256 254 248 250 226
330 332 331 339 327 322 293 250 220 257 292 306 314 283 291 336 320 312 272 279 325 340 230 221 229 139 169 200 191 192 214 224 262 175 277 197 279 297 255 230 255 246 217 229 205
333 334 330 337 322 317 216 263 248 277 288 285 272 218 254 295 343 343 268 223 283 259 287 260 237 202 90 95 202 197 168 200 209 244 254 230 238 226 265 235 243 229 201 183 179
335 321 322 322 319 278 248 246 289 296 304 292 284 272 260 281 224 284 272 295 356 326 326 327 289 299 131 199 182 166 207 212 173 211 235 250 244 220 253 270 236 231 198 166 165
324 289 312 309 320 234 267 248 304 300 299 277 243 249 260 264 262 233 249 247 1 52 340 274 221 285 139 124 121 159 214 194 208 232 227 184 251 181 212 258 277 228 181 172 171
287 279 311 292 288 297 281 286 292 294 296 299 271 243 206 315 281 257 291 298 330 34 23 326 284 326 352 24 36 219 206 220 215 24 228 185 257 341 299 299 293 161 152 161 165
294 277 290 262 258 243 307 305 305 301 293 272 274 286 286 283 252 284 293 309 339 302 296 277 294 178 206 165 163 250 252 212 211 230 248 232 246 327 324 303 315 112 145 155 167
281 271 261 281 295 293 302 286 301 322 308 295 291 244 281 272 324 258 282 313 300 313 29 245 271 238 264 218 160 216 216 225 228 240 250 271 227 274 274 239 217 153 147 153 167
257 241 266 276 279 270 300 279 300 316 319 301 277 335 314 252 208 278 287 295 263 346 350 313 276 351 274 284 179 284 256 251 253 256 251 251 274 153 323 256 128 163 166 167 177
266 252 290 273 283 275 262 304 307 311 303 302 307 309 300 270 259 279 270 268 260 285 287 259 261 331 277 317 285 343 312 281 295 18 309 262 311 172 216 218 191 191 194 195 198
Wind_Speed_850mb
47 42 39 45 47 47 47 47 49 49 47 44 40 39 40 40 50 48 53 50 47 38 32 39 32 28 28 24 33 18 2 13 18 18 24 18 4 11 13 17 14 12 15 20 52
47 47 46 45 46 48 50 51 49 51 50 48 45 39 37 32 48 64 54 42 44 38 42 35 36 30 19 21 19 13 11 21 14 17 14 16 19 28 13 14 9 14 14 31 54
47 48 49 50 50 51 52 55 55 53 50 48 44 39 34 30 42 25 14 3 23 39 45 41 36 34 38 22 25 16 23 27 25 35 20 15 17 22 16 7 28 35 43 48 53
49 49 50 50 51 54 56 57 58 59 55 47 47 41 35 23 17 16 19 7 24 15 34 44 44 43 16 23 42 15 33 44 42 49 44 12 15 10 22 27 14 43 55 54 56
53 54 55 55 56 57 59 60 63 63 60 55 45 41 44 29 60 51 40 60 51 24 26 43 40 38 24 11 36 19 16 47 58 44 47 35 21 18 15 32 40 30 46 61 58
56 57 58 60 61 64 66 68 68 67 64 56 47 41 43 42 66 56 50 43 43 33 33 38 34 47 29 23 31 15 40 40 50 51 40 17 29 21 5 50 40 44 42 54 69
55 58 58 59 60 62 64 69 70 69 63 55 46 42 50 97 55 40 34 51 39 35 40 42 50 41 5 28 55 38 30 29 27 14 16 16 25 18 64 65 59 52 48 57 62
56 62 61 62 65 67 71 73 74 66 57 38 40 39 47 69 63 65 71 51 44 38 36 36 41 47 35 28 24 10 12 33 22 18 14 20 41 19 64 63 64 71 61 63 63
62 62 64 66 70 73 75 76 69 63 35 25 34 36 38 26 27 44 61 77 64 60 52 46 36 41 16 13 10 13 11 11 15 14 11 35 38 37 62 46 53 66 82 64 70
61 60 64 68 72 77 75 64 62 55 32 16 22 16 42 31 19 30 41 60 68 50 50 41 26 15 11 22 43 32 9 22 20 11 31 43 46 7 28 23 40 60 65 76 64
61 61 65 68 72 74 71 63 57 21 39 35 50 74 106 97 85 59 39 31 68 51 31 44 21 31 50 47 35 30 30 36 21 26 29 37 48 35 39 32 17 27 48 66 78
62 63 68 71 70 72 36 48 43 44 51 49 58 81 109 89 57 103 73 31 34 53 38 20 37 49 42 33 34 30 35 42 26 18 11 25 37 16 33 34 44 47 49 50 60
65 69 69 75 73 45 33 62 39 59 29 53 58 55 48 28 79 99 55 43 23 49 41 52 34 48 39 35 39 41 42 43 30 2 7 8 34 22 14 21 36 56 69 71 72
66 67 73 73 57 54 82 37 60 48 12 17 13 13 16 31 16 49 63 62 16 12 31 38 53 36 41 43 42 42 41 38 34 8 26 22 30 35 16 29 34 57 51 71 78
67 70 71 63 76 72 63 58 34 27 12 16 13 10 38 7 32 18 53 58 48 43 11 5 28 45 36 47 44 36 34 24 24 25 20 19 12 32 18 43 53 39 63 78 92
67 72 78 80 82 62 42 34 34 6 15 12 24 37 37 56 37 36 17 39 35 39 31 48 16 12 52 33 30 20 7 4 6 22 33 41 29 51 25 47 33 39 63 82 86
73 76 75 75 62 37 39 24 4 9 14 15 12 34 39 51 43 26 19 6 15 27 37 56 57 12 8 12 4 13 16 15 17 19 24 31 26 45 14 39 42 35 47 75 83
73 78 76 59 29 21 24 4 7 13 16 18 26 38 19 40 9 14 12 13 16 20 7 29 19 43 35 25 5 38 43 19 21 10 20 10 18 24 38 41 72 71 41 34 63
74 79 79 33 23 22 9 5 13 13 14 27 38 31 23 9 5 6 7 13 4 10 12 15 20 2 19 24 40 13 22 19 9 3 9 7 11 17 25 18 19 12 36 52 56
70 71 39 28 27 27 4 24 16 34 41 37 25 12 8 10 11 12 7 4 8 11 19 5 11 14 3 9 11 25 14 9 12 27 39 13 8 12 22 20 17 16 15 36 54
58 29 22 25 48 15 6 13 16 30 39 12 8 12 12 15 9 7 12 11 6 13 10 3 8 6 20 17 26 11 15 10 6 16 26 15 8 15 28 5 16 12 15 38 54
30 8 35 41 8 7 5 8 49 46 61 32 19 16 18 7 8 10 11 8 14 5 19 7 5 7 5 1 2 4 27 14 13 13 9 6 20 12 12 9 11 11 24 37 52
19 18 19 15 3 9 12 25 28 26 23 10 6 11 5 5 6 7 7 12 17 5 6 9 5 4 7 6 5 7 13 15 8 2 25 10 11 5 7 6 10 10 31 43 55
17 6 9 10 10 8 18 28 21 31 30 13 10 7 4 5 7 12 13 11 28 25 38 13 7 4 6 4 8 4 7 20 19 21 28 33 41 9 11 7 9 17 36 51 54
20 5 8 7 11 14 19 17 35 26 14 27 4 8 10 5 9 8 7 14 16 15 6 4 8 4 8 7 5 7 8 12 22 29 13 4 9 8 10 9 8 17 39 44 55
17 6 7 26 29 9 21 11 28 30 16 15 10 18 18 7 13 21 12 13 9 9 10 6 7 4 6 2 3 6 8 12 13 17 17 25 39 3 7 6 11 25 35 32 45
17 16 12 24 7 5 8 14 34 38 19 35 32 22 10 13 14 28 28 34 18 18 11 9 5 2 8 6 3 9 8 5 5 9 8 7 6 6 7 8 12 30 42 44 48
Wind_Direction_850mb
4 0 3 1 358 354 351 350 345 340 336 326 317 302 300 304 305 297 286 290 280 277 260 258 253 227 209 216 212 207 128 240 239 225 245 281 190 178 173 152 175 188 188 193 182
4 2 359 355 353 350 346 342 339 337 334 330 325 313 306 297 296 290 292 288 275 248 249 242 239 211 205 223 199 170 175 220 213 225 264 288 216 183 167 170 189 158 171 166 177
3 1 357 355 352 347 341 336 333 331 328 326 325 320 305 299 303 285 193 9 286 250 236 246 244 221 220 212 202 203 220 230 262 262 284 312 287 195 154 200 209 190 181 177 182
358 355 352 348 345 342 339 335 331 328 328 324 322 317 298 281 263 195 211 243 324 330 233 241 236 236 208 216 218 241 221 229 256 262 284 280 284 271 198 214 188 230 229 206 197
348 348 348 346 343 339 335 332 328 325 323 324 314 316 310 268 244 255 261 284 286 279 258 233 230 237 233 220 233 246 243 244 250 259 268 291 249 239 271 245 240 244 220 218 211
344 347 346 342 339 336 333 329 326 324 322 315 314 302 298 262 276 274 273 262 266 265 257 212 214 228 270 243 246 254 240 256 250 249 244 257 266 236 231 245 257 240 234 220 215
344 343 343 341 338 334 329 326 321 322 317 310 296 296 275 255 265 254 242 239 253 244 239 228 228 236 247 246 256 264 260 270 244 231 214 248 255 211 246 249 251 252 234 225 215
340 336 341 339 336 332 330 326 323 319 317 303 291 281 260 275 281 254 243 229 228 231 233 242 238 258 255 255 302 279 263 242 244 218 234 198 247 234 245 239 234 236 237 219 215
335 340 340 338 334 332 330 326 330 324 316 290 276 243 263 289 284 284 257 241 234 240 249 256 243 241 227 207 275 221 249 228 241 225 238 202 253 235 244 241 227 229 234 221 221
335 338 334 333 332 331 333 330 335 337 311 320 271 240 260 271 320 320 266 249 237 242 221 209 215 206 204 200 221 222 216 232 229 215 214 235 242 242 211 216 230 228 229 228 219
332 331 331 331 331 331 331 332 344 333 315 286 264 279 276 271 283 281 286 283 238 235 199 192 197 203 217 219 228 226 214 237 238 228 246 241 249 224 237 263 231 242 234 226 224
334 333 331 330 329 327 317 329 335 313 305 290 270 260 271 275 270 263 259 259 223 226 210 181 212 216 217 219 227 225 231 243 258 242 272 282 271 238 223 241 244 244 238 225 217
330 330 329 326 326 329 300 317 317 315 290 299 277 264 272 255 244 254 239 241 253 237 203 207 206 219 217 213 219 225 225 234 236 189 202 25 284 265 253 245 237 243 246 241 229
329 329 325 328 327 313 307 325 310 315 278 282 260 283 38 308 272 291 248 221 216 259 242 209 216 199 210 215 210 226 223 231 233 201 247 167 265 258 229 238 240 243 237 237 236
330 329 329 329 312 308 308 310 316 329 287 268 280 308 318 51 314 322 330 214 230 228 232 250 215 215 210 209 202 227 236 226 217 209 242 221 245 257 185 241 240 234 235 233 235
328 326 327 327 322 322 325 307 306 237 249 280 302 308 330 324 312 294 291 243 228 242 248 258 244 255 222 217 201 217 117 115 208 223 241 234 215 267 220 233 244 231 225 231 225
328 326 327 325 312 328 315 314 252 217 324 278 303 323 316 303 307 300 264 216 250 205 227 243 242 215 199 219 163 179 196 224 216 211 239 223 201 239 209 239 236 234 227 227 224
329 329 328 334 333 320 306 316 257 250 237 291 313 318 286 304 320 323 359 300 234 245 269 223 263 195 192 214 169 200 202 217 230 189 239 168 213 238 240 252 256 254 248 250 226
330 332 331 339 327 322 293 250 220 257 292 306 314 283 291 336 320 312 272 279 325 340 230 221 229 139 169 200 191 192 214 224 262 175 277 197 279 297 255 230 255 246 217 229 205
333 334 330 337 322 317 216 263 248 277 288 285 272 218 254 295 343 343 268 223 283 259 287 260 237 202 90 95 202 197 168 200 209 244 254 230 238 226 265 235 243 229 201 183 179
335 321 322 322 319 278 248 246 289 296 304 292 284 272 260 281 224 284 272 295 356 326 326 327 289 299 131 199 182 166 207 212 173 211 235 250 244 220 253 270 236 231 198 166 165
324 289 312 309 320 234 267 248 304 300 299 277 243 249 260 264 262 233 249 247 1 52 340 274 221 285 139 124 121 159 214 194 208 232 227 184 251 181 212 258 277 228 181 172 171
287 279 311 292 288 297 281 286 292 294 296 299 271 243 206 315 281 257 291 298 330 34 23 326 284 326 352 24 36 219 206 220 215 24 228 185 257 341 299 299 293 161 152 161 165
294 277 290 262 258 243 307 305 305 301 293 272 274 286 286 283 252 284 293 309 339 302 296 277 294 178 206 165 163 250 252 212 211 230 248 232 246 327 324 303 315 112 145 155 167
281 271 261 281 295 293 302 286 301 322 308 295 291 244 281 272 324 258 282 313 300 313 29 245 271 238 264 218 160 216 216 225 228 240 250 271 227 274 274 239 217 153 147 153 167
257 241 266 276 279 270 300 279 300 316 319 301 277 335 314 252 208 278 287 295 263 346 350 313 276 351 274 284 179 284 256 251 253 256 251 251 274 153 323 256 128 163 166 167 177
266 252 290 273 283 275 262 304 307 311 303 302 307 309 300 270 259 279 270 268 260 285 287 259 261 331 277 317 285 343 312 281 295 18 309 262 311 172 216 218 191 191 194 195 198